Hourly Data Report for February 03, 2017

All times are specified in Local Standard Time (LST). Add 1 hour to adjust for Daylight Saving Time where and when it is observed.

TORONTO CITY
ONTARIO

43°40'00.000" N
79°24'00.000" W
112.50 m
6158355
71508
XTO

Download Data

Hourly Data (February 2017)
Hourly Data Report for February 3, 2017
TIME Temp Definition
°C
Dew Point Definition
°C
Rel Hum Definition
%
Wind Dir Definition
10's deg

Wind Spd Definition
km/h
Visibility Definition
km
Stn Press Definition
kPa
Hmdx Definition


Wind Chill Definition


Weather Definition


00:00 -5.3 -12.3 58 LegendMM LegendMM   100.79     LegendNANA
01:00 -5.7 -12.9 57 LegendMM LegendMM   100.75     LegendNANA
02:00 -6.2 -12.9 59 LegendMM LegendMM   100.75     LegendNANA
03:00 -6.7 -13.6 58 LegendMM LegendMM   100.79     LegendNANA
04:00 -7.1 -13.0 63 LegendMM LegendMM   100.76     LegendNANA
05:00 -7.0 -13.1 62 LegendMM LegendMM   100.76     LegendNANA
06:00 -7.4 -13.1 64 LegendMM LegendMM   100.74     LegendNANA
07:00 -7.8 -12.8 67 LegendMM LegendMM   100.77     LegendNANA
08:00 -7.6 -12.2 70 LegendMM LegendMM   100.83     LegendNANA
09:00 -7.0 -12.2 67 LegendMM LegendMM   100.82     LegendNANA
10:00 -5.9 -11.5 65 LegendMM LegendMM   100.84     LegendNANA
11:00 -4.9 -12.7 54 LegendMM LegendMM   100.82     LegendNANA
12:00 -4.3 -13.5 49 LegendMM LegendMM   100.76     LegendNANA
13:00 -3.6 -13.6 46 LegendMM LegendMM   100.72     LegendNANA
14:00 -4.1 -13.4 48 LegendMM LegendMM   100.69     LegendNANA
15:00 -4.3 -13.5 49 LegendMM LegendMM   100.72     LegendNANA
16:00 -4.9 -12.8 54 LegendMM LegendMM   100.77     LegendNANA
17:00 -5.2 -11.7 60 LegendMM LegendMM   100.82     LegendNANA
18:00 -5.7 -13.5 54 LegendMM LegendMM   100.89     LegendNANA
19:00 -6.6 -11.7 67 LegendMM LegendMM   100.97     LegendNANA
20:00 -7.0 -11.8 69 LegendMM LegendMM   101.00     LegendNANA
21:00 -6.9 -11.5 70 LegendMM LegendMM   101.03     LegendNANA
22:00 -6.5 -11.3 69 LegendMM LegendMM   101.03     LegendNANA
23:00 -6.3 -11.4 67 LegendMM LegendMM   101.08     LegendNANA

Notes on Data Quality.

Legend

  • E = Estimated
  • M = Missing
  • NA = Not Available
Date modified: